www.pogodaiklimat.ru
ПОГОДА в Первомайском
Время
(UTC), дата
18 30.05
21 30.05
00 31.05
03 31.05
06 31.05
09 31.05
12 31.05
15 31.05
18 31.05
21 31.05
00 1.06
03 1.06
06 1.06
09 1.06
12 1.06
15 1.06
18 1.06
21 1.06
00 2.06
03 2.06
06 2.06
09 2.06
12 2.06
15 2.06
18 2.06
21 2.06
00 3.06
03 3.06
06 3.06
09 3.06
12 3.06
15 3.06
18 3.06
21 3.06
00 4.06
03 4.06
06 4.06
09 4.06
12 4.06
15 4.06
18 4.06
21 4.06
03 5.06
06 5.06
09 5.06
12 5.06
15 5.06
21 5.06
03 6.06
09 6.06
15 6.06
Ветер
(напр.,м/с)
Видим. Явления Облачность Т
(С)
Тd
(С)
f
(%)
Тe
(С)
Тes
(С)
Комфортность P
(гПа)
Po
(гПа)
Тmin
(С)
Tmax
(С)
R
(мм)
R24
(мм)
S
(см)
штиль 0
{3}
10 км 6/0
[Ac lent Cc]
+3.0 +2.2 94 +2 +2 1011.7 988.2
С 1-1
{2}
10 км 6/0
[Ac cast Cs]
+8.2 +4.9 80 +8 +11 1010.9 987.8 +1.5
Ю 2-4
{6}
10 км ясно +17.4 +6.5 49 +18 +31 опасность
простуды
1008.2 986.0
Ю 3-5
{5}
10 км ясно +25.6 +6.7 30 +25 +40 комфорт 1005.2 983.6
Ю 3-5
{7}
10 км ясно +26.9 +7.6 29 +27 +34 жарко 1003.5 982.0
ЮЗ 2-3
{6}
10 км 3/0
[Cc]
+21.1 +8.9 46 +22 +23 комфорт 1004.3 982.4 +27.8
штиль 0
{4}
10 км 6/0
[As trans Ci fib]
+11.6 +8.2 80 +11 +11 1005.9 983.3
Ю 1-1
{2}
10 км ясно +6.4 +5.1 91 +5 +5 1006.1 983.0
штиль 0
{2}
10 км ясно +3.7 +2.9 95 +3 +3 1007.1 983.8
ЮЗ 1-2
{2}
10 км 4/0
[Ci fib]
+12.0 +8.7 80 +12 +15 1006.2 983.6 +3.0
Ю 2-3
{4}
10 км дым 8/0
[Ac As]
+21.1 +8.7 45 +22 +28 комфорт 1004.9 983.0
ЮЗ 3-5
{7}
10 км дым 8/0
[Ac cuf Ci fib]
+24.2 +7.1 33 +24 +31 комфорт 1003.7 982.0
ЮЗ 4-7
{8}
10 км дым 10/1 600 м
[Cb calv Cs]
+26.5 +6.4 28 +26 +31 жарко 1002.4 980.9
СВ 2-5
{9}
10 км дым 3/0
[Cc]
+19.6 +6.7 43 +21 +22 комфорт 1004.3 982.3 +27.3
С 1-3
{6}
10 км дым ясно +10.5 +6.8 78 +10 +10 1007.4 984.6
штиль 0
{3}
10 км дым ясно +3.5 +2.5 93 +2 +2 1008.0 984.6
штиль 0
{1}
10 км дым ясно -0.1 -0.9 94 -1 -1 1007.4 983.7
СВ 1-2
{3}
10 км в посл. час туман 4/0
[Ac cast Ci fib]
+9.7 +6.6 81 +9 +13 1006.3 983.5 -0.4
З 2-5
{5}
10 км дым {туман} 10/1 1000 м
[Cu med, cong Ac As Ci]
+19.7 +9.9 53 +21 +27 комфорт 1004.0 982.0
ЮЗ 3-5
{10}
10 км дым 9/6 600 м
[Cu Sc Ac As]
+20.3 +8.3 46 +22 +25 комфорт 1002.7 980.7
Ю 4-9
{11}
10 км дым 8/1 1000 м
[Cu hum Ac cast Cc]
+20.1 +7.2 43 +21 +25 комфорт 1001.7 979.8
ЮЗ 1-2
{9}
10 км дым 10/5 600 м
[Sc diur, vesp Ac lent Cc]
+16.1 +8.6 61 +17 +17 1002.0 979.7 +23.6
Ю 1-1
{3}
10 км дым 10/3 600 м
[Sc diur, vesp Ac lent Cs]
+11.5 +8.1 80 +11 +11 1003.0 980.4
ЮЗ 2-4
{4}
10 км дым 10/10 600 м
[Sc]
+9.6 +7.5 87 +8 +8 1002.3 979.7
Ю 1-2
{4}
10 км дым 10/10 600 м
[Sc]
+8.3 +6.8 90 +7 +7 1001.9 979.1
ЮЗ 1-2
{3}
10 км дым 10/10 600 м
[Sc]
+8.2 +6.6 90 +7 +7 1002.5 979.7 +8.0
ЮЗ 1-2
{3}
10 км дым 10/10 600 м
[Sc]
+10.9 +7.4 79 +11 +11 1002.4 979.8
Ю 1-2
{4}
10 км дым 10/10 600 м
[Sc]
+13.1 +7.9 71 +13 +13 1002.1 979.6
Ю 2-3
{5}
10 км дым 10/10 600 м
[Sc]
+14.0 +8.4 69 +14 +14 1001.9 979.5
Ю 1-2
{6}
10 км дым 10/10 600 м
[Sc]
+12.8 +8.3 74 +13 +13 1003.0 980.5 +14.8
штиль 0
{2}
10 км дым 10/10 600 м
[Sc]
+10.9 +8.1 83 +10 +10 1004.9 982.2
штиль 0
{3}
10 км {ливн. осадки} 10/10 600 м
[Cb cap]
+9.1 +8.1 93 +8 +8 1005.5 982.7
штиль 0
{1}
4000 м дымка {ливн. осадки} 10/10 300 м
[St]
+8.7 +7.8 94 +8 +8 1005.2 982.3
С 1-2
{2}
500 м туман ?/? +9.9 +9.0 94 +9 +9 1006.2 983.4 +8.7 0.8
ЮЗ 2-3
{3}
10 км дым {туман} 9/9 600 м
[Sc]
+13.7 +10.1 79 +13 +14 1006.1 983.6
ЮЗ 1-3
{5}
10 км дым 10/10 600 м
[Cb cap]
+16.4 +9.6 64 +17 +17 1005.7 983.4
ЮЗ 2-4
{5}
10 км слаб. ливневой дождь 10/10 600 м
[Cb cap]
+14.9 +10.5 75 +15 +15 1006.4 984.1
Ю 2-4
{5}
10 км {ливн. осадки} 10/10 600 м
[Cb cap]
+12.3 +10.4 88 +11 +11 1007.6 985.0 +16.6 0.4
Ю 2-3
{4}
1000 м дымка {ливн. осадки} 10/10 300 м
[St]
+10.2 +9.2 94 +9 +9 1009.1 986.3
штиль 0
{3}
4000 м в посл. час туман 10/10 300 м
[St]
+8.9 +7.0 88 +8 +8 1009.3 986.4
штиль 0
{3}
10 км {туман} 10/10 300 м
[St]
+8.3 +6.5 88 +7 +7 1009.2 986.2
С 2-6
{6}
10 км слаб. дождь 10/0
[As op]
+8.7 +6.6 87 +7 +8 1008.5 985.5 +8.1 0.0
С 3-6
{6}
10 км {дождь} 10/10 600 м
[Cu Sc]
+11.9 +8.9 82 +10 +10 1008.6 985.9
С 2-4
{6}
10 км слаб. ливневой дождь 10/8 600 м
[Cb cap As trans]
+11.5 +9.8 89 +10 +11 1008.5 985.8
С 2-3
{5}
10 км слаб. ливневой дождь 10/8 600 м
[Cb cap As trans]
+10.5 +8.1 85 +9 +9 1008.6 985.9 +12.6 3
С 2-4
{4}
10 км слаб. ливневой дождь 10/10 600 м
[Cb cap]
+9.0 +7.8 92 +7 +7 1009.3 986.4
С 2-4
{4}
10 км в посл. час ливневой дождь 10/10 600 м
[Cb cap]
+8.4 +7.3 93 +6 +6 1009.1 986.1
С 1-2
{4}
10 км 10/10 600 м
[Cb cap]
+9.0 +7.8 92 +8 +8 1009.4 986.5 +8.0 2
З 1-2
{4}
10 км 9/9 600 м
[Cb cap]
+13.9 +9.3 74 +14 +16 1009.5 986.9
ЮВ 1-1
{3}
10 км {ливн. осадки} 10/6 600 м
[Cb cap As trans]
+13.3 +9.9 80 +13 +14 1009.6 987.0 +16.6 0.0
штиль 0
{1}
10 км {ливн. осадки} 10/10 600 м
[Cb cap]
+8.4 +7.6 95 +7 +7 1010.9 987.9
Местоположение метеостанции Первомайск (Сахалинская область, Россия): широта 49.97 долгота 143.20 высота над уровнем моря 190 м.
В архиве по умолчанию представлена погода в Первомайском за последнюю неделю. Архивные данные за месяц целиком и за предыдущие месяцы, начиная с января 2011 года, Вы можете получить, выбрав интересующий диапазон дат из раскрывающегося списка и нажав кнопку "Найти!".
*Определитесь, кто Вы:
Внимание! Время в таблицах - всемирное. Для получения местного времени необходимо прибавить поправку, которая равна 11 ч.
Смотрите также архив погоды в соседних городах и на ближайших метеорологических станциях:
Партнеры нашего сайта:      
Пояснения к столбцам:
  • Ветер - указаны скорость ветра в м/с - средняя за 10 мин, порывы в срок и между сроками (в фигурных скобках) и направление, откуда дует ветер: С - северный,
  • СВ - северо-восточный, В - восточный, ЮВ - юго-восточный, Ю - южный, ЮЗ - юго-западный, З - западный, СЗ - северо-западный.
  • Видимость - горизонтальная дальность видимости в метрах или километрах. При видимости от 1 до 10 км при отсутствии осадков обычно наблюдается дымка, при ухудшении видимости до 1 км и менее - туман. В сухую погоду видимость может ухудшаться дымом, пылью или мглою.
  • Явления - указаны атмосферные явления, наблюдавшиеся в срок или в последний час перед сроком; фигурными скобками обозначены явления, наблюдавшиеся между сроками (за 1-3 часа до срока); квадратными скобками обозначены град или гололедные отложения с указанием их диаметра в мм.
  • Облачность - указаны через наклонную черту общая и нижняя облачность в баллах и высота нижней границы облаков в метрах; квадратными скобками обозначены формы облаков: Ci - перистые, Cs - перисто-слоистые, Cc - перисто-кучевые, Ac - высококучевые, As - высокослоистые, Sc - слоисто-кучевые, Ns - слоисто-дождевые, Cu - кучевые, Cb - кучево-дождевые. Подробнее классификацию облаков см. в Атласе облаков (PDF).
  • T - Температура воздуха - температура, измеренная на высоте 2 м над землей.
  • Td - Температура точки росы - температура, при понижении до которой содержащийся в воздухе водяной пар достигнет насыщения.
  • f - Относительная влажность воздуха - влажноcть воздуха, измеренная на высоте 2 м над землей.
  • Te - Эффективная температура - температура, которую ощущает одетый по сезону человек в тени. Характеристика душности погоды. При расчете учитывается влияние влажности воздуха и скорости ветра на теплоощущения человека.
  • Tes - Эффективная температура на солнце - температура, которую ощущает человек, с поправкой на солнечный нагрев. Характеристика знойности погоды. Зависит от высоты солнца над горизонтом, облачности и скорости ветра. Ночью, в пасмурную погоду, а также при ветре 12 м/с и более поправка равна нулю.
  • P - Атмосферное давление - приведенное к уровню моря атмосферное давление.
  • Po - Атмосферное давление - измеренное на уровне метеостанции атмосферное давление.
  • Tmin - Минимальная температура - минимум температуры воздуха на высоте 2 м над землей.
  • Tmax - Максимальная температура - максимум температуры воздуха на высоте 2 м над землей.
  • R - Количество осадков - Количество выпавших осадков за период времени, мм. При наведении курсора мыши на число - период времени, за который выпало указанное количество осадков.
  • R24 - Количество осадков - Количество выпавших осадков за 24 часа, мм.
  • S - Снежный покров - Высота снежного покрова, см. При наведении курсора мыши на число - состояние снежного покрова и степень покрытия местности в баллах.